START_TIME,STEP,MOV.,A46,t_acc.,A13,t_acc.,M47,t_acc.,A17,t_acc.,A28,t_acc.,M38,t_acc.
1979-07-13 06:00:25.840 ,0,1,,0,34.,4.8,5.,4.8,,0,0.,4.8,12.,4.8
1979-07-13 06:00:30.640 ,0,1,,0,22.,4.8,4.,4.8,,0,0.,4.8,11.,4.8
1979-07-13 06:00:35.440 ,0,1,,0,13.,4.8,3.,4.8,,0,0.,4.8,7.,4.8
1979-07-13 06:00:40.240 ,0,1,,0,0.,4.8,0.,4.8,,0,0.,4.8,13.,4.8
1979-07-13 06:00:45.040 ,0,1,,0,0.,4.8,0.,4.8,,0,0.,4.8,5.,4.8
1979-07-13 06:00:49.840 ,4,1,,0,0.,4.8,0.,4.8,,0,0.,4.8,5.,4.8
1979-07-13 06:00:54.640 ,4,1,,0,0.,4.8,0.,4.8,,0,0.,4.8,6.,4.8
1979-07-13 06:00:59.440 ,4,1,,0,2.,4.8,0.,4.8,,0,0.,4.8,11.,4.8
1979-07-13 06:01:04.240 ,4,1,,0,33.,4.8,2.,4.8,,0,0.,4.8,11.,4.8
1979-07-13 06:01:09.040 ,4,1,,0,24.,4.8,1.,4.8,,0,0.,4.8,17.,4.8
1979-07-13 06:01:13.840 ,7,1,,0,46.,4.8,5.,4.8,,0,0.,4.8,18.,4.8
1979-07-13 06:01:18.640 ,7,1,,0,38.,4.8,7.,4.8,,0,0.,4.8,16.,4.8
1979-07-13 06:01:23.440 ,7,1,,0,38.,4.8,2.,4.8,,0,0.,4.8,12.,4.8
1979-07-13 06:01:28.240 ,7,1,,0,0.,4.8,0.,4.8,,0,0.,4.8,0.,4.8
1979-07-13 06:01:33.040 ,7,1,,0,0.,4.8,0.,4.8,,0,0.,4.8,0.,4.8
1979-07-13 06:01:37.840 ,3,1,,0,0.,4.8,0.,4.8,,0,0.,4.8,7.,4.8
1979-07-13 06:01:42.640 ,3,1,,0,1.,4.8,0.,4.8,,0,0.,4.8,16.,4.8
1979-07-13 06:01:47.440 ,3,1,,0,13.,4.8,2.,4.8,,0,0.,4.8,13.,4.8
1979-07-13 06:01:52.240 ,3,1,,0,45.,4.8,6.,4.8,,0,0.,4.8,18.,4.8
1979-07-13 06:01:57.040 ,3,1,,0,30.,4.8,3.,4.8,,0,0.,4.8,12.,4.8
1979-07-13 06:02:01.840 ,0,1,,0,32.,4.8,3.,4.8,,0,0.,4.8,18.,4.8
1979-07-13 06:02:06.640 ,0,1,,0,30.,4.8,5.,4.8,,0,0.,4.8,30.,4.8
1979-07-13 06:02:11.440 ,0,1,,0,28.,4.8,2.,4.8,,0,0.,4.8,29.,4.8
1979-07-13 06:02:16.240 ,0,1,,0,0.,4.8,0.,4.8,,0,0.,4.8,10.,4.8
1979-07-13 06:02:21.040 ,0,1,,0,0.,4.8,0.,4.8,,0,0.,4.8,9.,4.8
1979-07-13 06:02:25.840 ,4,1,,0,0.,4.8,0.,4.8,,0,0.,4.8,22.,4.8
1979-07-13 06:02:30.640 ,4,1,,0,0.,4.8,0.,4.8,,0,0.,4.8,32.,4.8
1979-07-13 06:02:35.440 ,4,1,,0,11.,4.8,1.,4.8,,0,0.,4.8,38.,4.8
1979-07-13 06:02:40.240 ,4,1,,0,62.,4.8,4.,4.8,,0,0.,4.8,50.,4.8
1979-07-13 06:02:45.040 ,4,1,,0,59.,4.8,4.,4.8,,0,0.,4.8,33.,4.8
1979-07-13 06:02:49.840 ,7,1,,0,64.,4.8,5.,4.8,,0,0.,4.8,25.,4.8
1979-07-13 06:02:54.640 ,7,1,,0,46.,4.8,3.,4.8,,0,0.,4.8,24.,4.8
1979-07-13 06:02:59.440 ,7,1,,0,36.,4.8,4.,4.8,,0,0.,4.8,14.,4.8
1979-07-13 06:03:04.240 ,7,1,,0,1.,4.8,0.,4.8,,0,0.,4.8,0.,4.8
1979-07-13 06:03:09.040 ,7,1,,0,0.,4.8,0.,4.8,,0,0.,4.8,0.,4.8
1979-07-13 06:03:13.840 ,3,1,,0,0.,4.8,0.,4.8,,0,0.,4.8,6.,4.8
1979-07-13 06:03:18.640 ,3,1,,0,2.,4.8,0.,4.8,,0,0.,4.8,15.,4.8
1979-07-13 06:03:23.440 ,3,1,,0,16.,4.8,3.,4.8,,0,0.,4.8,19.,4.8
1979-07-13 06:03:28.240 ,3,1,,0,96.,4.8,11.,4.8,,0,0.,4.8,56.,4.8
1979-07-13 06:03:33.040 ,3,1,,0,90.,4.8,8.,4.8,,0,0.,4.8,63.,4.8
1979-07-13 06:03:37.840 ,0,1,,0,82.,4.8,10.,4.8,,0,0.,4.8,37.,4.8
1979-07-13 06:03:42.640 ,0,1,,0,47.,4.8,5.,4.8,,0,0.,4.8,20.,4.8
1979-07-13 06:03:47.440 ,0,1,,0,30.,4.8,8.,4.8,,0,0.,4.8,15.,4.8
1979-07-13 06:03:52.240 ,0,1,,0,0.,4.8,0.,4.8,,0,0.,4.8,8.,4.8
1979-07-13 06:03:57.040 ,0,1,,0,0.,4.8,0.,4.8,,0,0.,4.8,4.,4.8
1979-07-13 06:04:01.840 ,4,1,,0,0.,4.8,0.,4.8,,0,0.,4.8,10.,4.8
1979-07-13 06:04:06.640 ,4,1,,0,1.,4.8,0.,4.8,,0,0.,4.8,19.,4.8
1979-07-13 06:04:11.440 ,4,1,,0,20.,4.8,3.,4.8,,0,0.,4.8,33.,4.8
1979-07-13 06:04:16.240 ,4,1,,0,84.,4.8,3.,4.8,,0,0.,4.8,52.,4.8
1979-07-13 06:04:21.040 ,4,1,,0,108.,4.8,17.,4.8,,0,0.,4.8,63.,4.8
1979-07-13 06:04:25.840 ,7,1,,0,88.,4.8,9.,4.8,,0,0.,4.8,54.,4.8
1979-07-13 06:04:30.640 ,7,1,,0,70.,4.8,5.,4.8,,0,0.,4.8,32.,4.8
1979-07-13 06:04:35.440 ,7,1,,0,56.,4.8,3.,4.8,,0,0.,4.8,26.,4.8
1979-07-13 06:04:40.240 ,7,1,,0,0.,4.8,0.,4.8,,0,0.,4.8,0.,4.8
1979-07-13 06:04:45.040 ,7,1,,0,1.,4.8,0.,4.8,,0,0.,4.8,0.,4.8
1979-07-13 06:04:49.840 ,3,1,,0,2.,4.8,0.,4.8,,0,0.,4.8,26.,4.8
1979-07-13 06:04:54.640 ,3,1,,0,0.,4.8,0.,4.8,,0,0.,4.8,33.,4.8
1979-07-13 06:04:59.440 ,3,1,,0,28.,4.8,1.,4.8,,0,0.,4.8,48.,4.8
1979-07-13 06:05:04.240 ,3,1,,0,156.,4.8,11.,4.8,,0,0.,4.8,63.,4.8
1979-07-13 06:05:09.040 ,3,1,,0,98.,4.8,12.,4.8,,0,0.,4.8,68.,4.8
1979-07-13 06:05:13.840 ,0,1,,0,80.,4.8,8.,4.8,,0,0.,4.8,43.,4.8
1979-07-13 06:05:18.640 ,0,1,,0,50.,4.8,6.,4.8,,0,0.,4.8,25.,4.8
1979-07-13 06:05:23.440 ,0,1,,0,19.,4.8,2.,4.8,,0,0.,4.8,8.,4.8
1979-07-13 06:05:28.240 ,0,1,,0,1.,4.8,0.,4.8,,0,0.,4.8,7.,4.8
1979-07-13 06:05:33.040 ,0,1,,0,0.,4.8,0.,4.8,,0,0.,4.8,6.,4.8
1979-07-13 06:05:37.840 ,0,0,,0,0.,4.8,0.,4.8,,0,0.,4.8,7.,4.8
1979-07-13 06:05:42.640 ,0,0,,0,0.,4.8,0.,4.8,,0,0.,4.8,17.,4.8
1979-07-13 06:05:47.440 ,0,0,,0,8.,4.8,0.,4.8,,0,0.,4.8,12.,4.8
1979-07-13 06:05:52.240 ,0,0,,0,66.,4.8,6.,4.8,,0,0.,4.8,35.,4.8
1979-07-13 06:05:57.040 ,0,0,,0,90.,4.8,9.,4.8,,0,0.,4.8,56.,4.8
1979-07-13 06:06:01.840 ,0,0,,0,100.,4.8,8.,4.8,,0,0.,4.8,68.,4.8
1979-07-13 06:06:06.640 ,0,0,,0,88.,4.8,6.,4.8,,0,0.,4.8,43.,4.8
1979-07-13 06:06:11.440 ,0,0,,0,63.,4.8,3.,4.8,,0,0.,4.8,37.,4.8
1979-07-13 06:06:16.240 ,0,0,,0,0.,4.8,0.,4.8,,0,0.,4.8,0.,4.8
1979-07-13 06:06:21.040 ,0,0,,0,0.,4.8,0.,4.8,,0,0.,4.8,0.,4.8
1979-07-13 06:06:25.840 ,5,0,,0,0.,4.8,0.,4.8,,0,0.,4.8,16.,4.8
1979-07-13 06:06:30.640 ,5,0,,0,0.,4.8,0.,4.8,,0,0.,4.8,47.,4.8
1979-07-13 06:06:35.440 ,5,0,,0,17.,4.8,1.,4.8,,0,0.,4.8,64.,4.8
1979-07-13 06:06:40.240 ,5,0,,0,104.,4.8,4.,4.8,,0,0.,4.8,76.,4.8
1979-07-13 06:06:45.040 ,5,0,,0,118.,4.8,12.,4.8,,0,0.,4.8,58.,4.8
1979-07-13 06:06:49.840 ,5,0,,0,132.,4.8,11.,4.8,,0,0.,4.8,51.,4.8
1979-07-13 06:06:54.640 ,5,0,,0,86.,4.8,6.,4.8,,0,0.,4.8,66.,4.8
1979-07-13 06:06:59.440 ,5,0,,0,102.,4.8,7.,4.8,,0,0.,4.8,68.,4.8
1979-07-13 06:07:04.240 ,5,0,,0,0.,4.8,0.,4.8,,0,0.,4.8,72.,4.8
1979-07-13 06:07:09.040 ,5,0,,0,1.,4.8,0.,4.8,,0,0.,4.8,57.,4.8
1979-07-13 06:07:13.840 ,4,0,,0,0.,4.8,0.,4.8,,0,0.,4.8,61.,4.8
1979-07-13 06:07:18.640 ,4,0,,0,0.,4.8,0.,4.8,,0,0.,4.8,64.,4.8
1979-07-13 06:07:23.440 ,4,0,,0,16.,4.8,1.,4.8,,0,0.,4.8,47.,4.8
1979-07-13 06:07:28.240 ,4,0,,0,68.,4.8,3.,4.8,,0,0.,4.8,28.,4.8
1979-07-13 06:07:33.040 ,4,0,,0,76.,4.8,7.,4.8,,0,0.,4.8,41.,4.8
1979-07-13 06:07:37.840 ,4,0,,0,66.,4.8,8.,4.8,,0,0.,4.8,39.,4.8
1979-07-13 06:07:42.640 ,4,0,,0,72.,4.8,8.,4.8,,0,0.,4.8,36.,4.8
1979-07-13 06:07:47.440 ,4,0,,0,46.,4.8,4.,4.8,,0,0.,4.8,48.,4.8
1979-07-13 06:07:52.240 ,4,0,,0,0.,4.8,0.,4.8,,0,0.,4.8,32.,4.8
1979-07-13 06:07:57.040 ,4,0,,0,0.,4.8,0.,4.8,,0,0.,4.8,28.,4.8
1979-07-13 06:08:01.840 ,3,0,,0,3.,4.8,0.,4.8,,0,0.,4.8,42.,4.8
1979-07-13 06:08:06.640 ,3,0,,0,0.,4.8,0.,4.8,,0,0.,4.8,50.,4.8
1979-07-13 06:08:11.440 ,3,0,,0,18.,4.8,1.,4.8,,0,0.,4.8,53.,4.8
1979-07-13 06:08:16.240 ,3,0,,0,84.,4.8,5.,4.8,,0,0.,4.8,47.,4.8
1979-07-13 06:08:21.040 ,3,0,,0,108.,4.8,13.,4.8,,0,0.,4.8,52.,4.8
1979-07-13 06:08:25.840 ,3,0,,0,92.,4.8,11.,4.8,,0,0.,4.8,49.,4.8
1979-07-13 06:08:30.640 ,3,0,,0,110.,4.8,12.,4.8,,0,0.,4.8,53.,4.8
1979-07-13 06:08:35.440 ,3,0,,0,104.,4.8,14.,4.8,,0,0.,4.8,70.,4.8
1979-07-13 06:08:40.240 ,3,0,,0,0.,4.8,0.,4.8,,0,0.,4.8,64.,4.8
1979-07-13 06:08:45.040 ,3,0,,0,0.,4.8,0.,4.8,,0,0.,4.8,62.,4.8
1979-07-13 06:08:49.840 ,2,0,,0,1.,4.8,0.,4.8,,0,0.,4.8,51.,4.8
1979-07-13 06:08:54.640 ,2,0,,0,0.,4.8,0.,4.8,,0,0.,4.8,39.,4.8
1979-07-13 06:08:59.440 ,2,0,,0,10.,4.8,5.,4.8,,0,0.,4.8,23.,4.8
1979-07-13 06:09:04.240 ,2,0,,0,47.,4.8,6.,4.8,,0,0.,4.8,20.,4.8
1979-07-13 06:09:09.040 ,2,0,,0,51.,4.8,4.,4.8,,0,0.,4.8,25.,4.8
1979-07-13 06:09:13.840 ,2,0,,0,35.,4.8,5.,4.8,,0,0.,4.8,25.,4.8
1979-07-13 06:09:18.640 ,2,0,,0,53.,4.8,5.,4.8,,0,0.,4.8,21.,4.8
1979-07-13 06:09:23.440 ,2,0,,0,41.,4.8,2.,4.8,,0,0.,4.8,21.,4.8
1979-07-13 06:09:28.240 ,2,0,,0,0.,4.8,0.,4.8,,0,0.,4.8,20.,4.8
1979-07-13 06:09:33.040 ,2,0,,0,0.,4.8,0.,4.8,,0,0.,4.8,31.,4.8
1979-07-13 06:09:37.840 ,1,0,,0,1.,4.8,0.,4.8,,0,0.,4.8,24.,4.8
1979-07-13 06:09:42.640 ,1,0,,0,0.,4.8,0.,4.8,,0,0.,4.8,19.,4.8
1979-07-13 06:09:47.440 ,1,0,,0,5.,4.8,0.,4.8,,0,0.,4.8,10.,4.8
1979-07-13 06:09:52.240 ,1,0,,0,24.,4.8,4.,4.8,,0,0.,4.8,14.,4.8
1979-07-13 06:09:57.040 ,1,0,,0,20.,4.8,2.,4.8,,0,0.,4.8,9.,4.8
1979-07-13 06:10:01.840 ,1,0,,0,22.,4.8,4.,4.8,,0,0.,4.8,9.,4.8
1979-07-13 06:10:06.640 ,1,0,,0,30.,4.8,5.,4.8,,0,0.,4.8,17.,4.8
1979-07-13 06:10:11.440 ,1,0,,0,20.,4.8,3.,4.8,,0,0.,4.8,8.,4.8
1979-07-13 06:10:16.240 ,1,0,,0,0.,4.8,0.,4.8,,0,0.,4.8,10.,4.8
1979-07-13 06:10:21.040 ,1,0,,0,0.,4.8,0.,4.8,,0,0.,4.8,9.,4.8
1979-07-13 06:10:25.840 ,0,0,,0,0.,4.8,0.,4.8,,0,0.,4.8,9.,4.8
1979-07-13 06:10:30.640 ,0,0,,0,0.,4.8,0.,4.8,,0,0.,4.8,5.,4.8
1979-07-13 06:10:35.440 ,0,0,,0,3.,4.8,0.,4.8,,0,0.,4.8,6.,4.8
1979-07-13 06:10:40.240 ,0,0,,0,20.,4.8,0.,4.8,,0,0.,4.8,5.,4.8
1979-07-13 06:10:45.040 ,0,0,,0,21.,4.8,2.,4.8,,0,0.,4.8,6.,4.8
1979-07-13 06:10:49.840 ,0,0,,0,19.,4.8,1.,4.8,,0,0.,4.8,8.,4.8
1979-07-13 06:10:54.640 ,0,0,,0,22.,4.8,2.,4.8,,0,0.,4.8,7.,4.8
1979-07-13 06:10:59.440 ,0,0,,0,16.,4.8,1.,4.8,,0,0.,4.8,10.,4.8
1979-07-13 06:11:04.240 ,0,0,,0,0.,4.8,0.,4.8,,0,0.,4.8,8.,4.8
1979-07-13 06:11:09.040 ,0,0,,0,0.,4.8,0.,4.8,,0,0.,4.8,5.,4.8
1979-07-13 06:11:13.840 ,0,0,,0,0.,4.8,0.,4.8,,0,0.,4.8,5.,4.8
1979-07-13 06:11:18.640 ,0,0,,0,0.,4.8,0.,4.8,,0,0.,4.8,6.,4.8
1979-07-13 06:11:23.440 ,0,0,,0,4.,4.8,0.,4.8,,0,0.,4.8,4.,4.8
1979-07-13 06:11:28.240 ,0,0,,0,17.,4.8,1.,4.8,,0,0.,4.8,11.,4.8
1979-07-13 06:11:33.040 ,0,0,,0,22.,4.8,4.,4.8,,0,0.,4.8,9.,4.8
1979-07-13 06:11:37.840 ,0,0,,0,31.,4.8,3.,4.8,,0,0.,4.8,9.,4.8
1979-07-13 06:11:42.640 ,0,0,,0,21.,4.8,2.,4.8,,0,0.,4.8,4.,4.8
1979-07-13 06:11:47.440 ,0,0,,0,21.,4.8,2.,4.8,,0,0.,4.8,8.,4.8
1979-07-13 06:11:52.240 ,0,0,,0,0.,4.8,0.,4.8,,0,0.,4.8,2.,4.8
1979-07-13 06:11:57.040 ,0,0,,0,0.,4.8,0.,4.8,,0,0.,4.8,5.,4.8
1979-07-13 06:12:01.840 ,1,0,,0,0.,4.8,0.,4.8,,0,0.,4.8,8.,4.8
1979-07-13 06:12:06.640 ,1,0,,0,0.,4.8,0.,4.8,,0,0.,4.8,7.,4.8
1979-07-13 06:12:11.440 ,1,0,,0,5.,4.8,0.,4.8,,0,0.,4.8,14.,4.8
1979-07-13 06:12:16.240 ,1,0,,0,24.,4.8,0.,4.8,,0,0.,4.8,14.,4.8
1979-07-13 06:12:21.040 ,1,0,,0,35.,4.8,3.,4.8,,0,0.,4.8,9.,4.8
1979-07-13 06:12:25.840 ,1,0,,0,30.,4.8,3.,4.8,,0,0.,4.8,18.,4.8
1979-07-13 06:12:30.640 ,1,0,,0,31.,4.8,4.,4.8,,0,0.,4.8,17.,4.8
1979-07-13 06:12:35.440 ,1,0,,0,30.,4.8,6.,4.8,,0,0.,4.8,12.,4.8
1979-07-13 06:12:40.240 ,1,0,,0,0.,4.8,0.,4.8,,0,0.,4.8,15.,4.8
1979-07-13 06:12:45.040 ,1,0,,0,0.,4.8,0.,4.8,,0,0.,4.8,14.,4.8
1979-07-13 06:12:49.840 ,2,0,,0,0.,4.8,0.,4.8,,0,0.,4.8,15.,4.8
1979-07-13 06:12:54.640 ,2,0,,0,0.,4.8,0.,4.8,,0,0.,4.8,15.,4.8
1979-07-13 06:12:59.440 ,2,0,,0,10.,4.8,1.,4.8,,0,0.,4.8,22.,4.8
1979-07-13 06:13:04.240 ,2,0,,0,35.,4.8,4.,4.8,,0,0.,4.8,21.,4.8
1979-07-13 06:13:09.040 ,2,0,,0,39.,4.8,7.,4.8,,0,0.,4.8,17.,4.8
1979-07-13 06:13:13.840 ,2,0,,0,29.,4.8,3.,4.8,,0,0.,4.8,26.,4.8
1979-07-13 06:13:18.640 ,2,0,,0,42.,4.8,3.,4.8,,0,0.,4.8,30.,4.8
1979-07-13 06:13:23.440 ,2,0,,0,33.,4.8,4.,4.8,,0,0.,4.8,26.,4.8
1979-07-13 06:13:28.240 ,2,0,,0,1.,4.8,0.,4.8,,0,0.,4.8,23.,4.8
1979-07-13 06:13:33.040 ,2,0,,0,0.,4.8,0.,4.8,,0,0.,4.8,15.,4.8
1979-07-13 06:13:37.840 ,3,0,,0,1.,4.8,0.,4.8,,0,0.,4.8,37.,4.8
1979-07-13 06:13:42.640 ,3,0,,0,0.,4.8,0.,4.8,,0,0.,4.8,29.,4.8
1979-07-13 06:13:47.440 ,3,0,,0,2.,4.8,0.,4.8,,0,0.,4.8,23.,4.8
1979-07-13 06:13:52.240 ,3,0,,0,43.,4.8,5.,4.8,,0,0.,4.8,32.,4.8
1979-07-13 06:13:57.040 ,3,0,,0,40.,4.8,5.,4.8,,0,0.,4.8,26.,4.8
1979-07-13 06:14:01.840 ,3,0,,0,44.,4.8,5.,4.8,,0,0.,4.8,27.,4.8
1979-07-13 06:14:06.640 ,3,0,,0,34.,4.8,2.,4.8,,0,0.,4.8,31.,4.8
1979-07-13 06:14:11.440 ,3,0,,0,35.,4.8,3.,4.8,,0,0.,4.8,23.,4.8
1979-07-13 06:14:16.240 ,3,0,,0,0.,4.8,0.,4.8,,0,0.,4.8,19.,4.8
1979-07-13 06:14:21.040 ,3,0,,0,0.,4.8,0.,4.8,,0,0.,4.8,27.,4.8
1979-07-13 06:14:25.840 ,4,0,,0,0.,4.8,0.,4.8,,0,0.,4.8,26.,4.8
1979-07-13 06:14:30.640 ,4,0,,0,1.,4.8,0.,4.8,,0,0.,4.8,24.,4.8
1979-07-13 06:14:35.440 ,4,0,,0,6.,4.8,0.,4.8,,0,0.,4.8,24.,4.8
1979-07-13 06:14:40.240 ,4,0,,0,33.,4.8,4.,4.8,,0,0.,4.8,29.,4.8
1979-07-13 06:14:45.040 ,4,0,,0,33.,4.8,1.,4.8,,0,0.,4.8,15.,4.8
1979-07-13 06:14:49.840 ,4,0,,0,27.,4.8,2.,4.8,,0,0.,4.8,24.,4.8
1979-07-13 06:14:54.640 ,4,0,,0,32.,4.8,5.,4.8,,0,0.,4.8,14.,4.8
1979-07-13 06:14:59.440 ,4,0,,0,23.,4.8,2.,4.8,,0,0.,4.8,16.,4.8
1979-07-13 06:15:04.240 ,4,0,,0,0.,4.8,0.,4.8,,0,0.,4.8,12.,4.8
1979-07-13 06:15:09.040 ,4,0,,0,0.,4.8,0.,4.8,,0,0.,4.8,16.,4.8
1979-07-13 06:15:13.840 ,5,0,,0,0.,4.8,0.,4.8,,0,0.,4.8,16.,4.8
1979-07-13 06:15:18.640 ,5,0,,0,0.,4.8,0.,4.8,,0,0.,4.8,17.,4.8
1979-07-13 06:15:23.440 ,5,0,,0,4.,4.8,0.,4.8,,0,0.,4.8,15.,4.8
1979-07-13 06:15:28.240 ,5,0,,0,23.,4.8,2.,4.8,,0,0.,4.8,13.,4.8
1979-07-13 06:15:33.040 ,5,0,,0,28.,4.8,2.,4.8,,0,0.,4.8,17.,4.8
1979-07-13 06:15:37.840 ,5,0,,0,37.,4.8,4.,4.8,,0,0.,4.8,15.,4.8
1979-07-13 06:15:42.640 ,5,0,,0,33.,4.8,1.,4.8,,0,0.,4.8,16.,4.8
1979-07-13 06:15:47.440 ,5,0,,0,26.,4.8,2.,4.8,,0,0.,4.8,16.,4.8
1979-07-13 06:15:52.240 ,5,0,,0,0.,4.8,0.,4.8,,0,0.,4.8,20.,4.8
1979-07-13 06:15:57.040 ,5,0,,0,0.,4.8,0.,4.8,,0,0.,4.8,16.,4.8
1979-07-13 06:16:01.840 ,6,0,,0,0.,4.8,0.,4.8,,0,0.,4.8,15.,4.8
1979-07-13 06:16:06.640 ,6,0,,0,0.,4.8,0.,4.8,,0,0.,4.8,15.,4.8
1979-07-13 06:16:11.440 ,6,0,,0,5.,4.8,1.,4.8,,0,0.,4.8,11.,4.8
1979-07-13 06:16:16.240 ,6,0,,0,28.,4.8,3.,4.8,,0,0.,4.8,4.,4.8
1979-07-13 06:16:21.040 ,6,0,,0,29.,4.8,1.,4.8,,0,0.,4.8,13.,4.8
1979-07-13 06:16:25.840 ,6,0,,0,30.,4.8,3.,4.8,,0,0.,4.8,9.,4.8
1979-07-13 06:16:30.640 ,6,0,,0,31.,4.8,2.,4.8,,0,0.,4.8,10.,4.8
1979-07-13 06:16:35.440 ,6,0,,0,16.,4.8,2.,4.8,,0,0.,4.8,8.,4.8
1979-07-13 06:16:40.240 ,6,0,,0,0.,4.8,0.,4.8,,0,0.,4.8,13.,4.8
1979-07-13 06:16:45.040 ,6,0,,0,0.,4.8,0.,4.8,,0,0.,4.8,11.,4.8
1979-07-13 06:16:49.840 ,7,0,,0,0.,4.8,0.,4.8,,0,0.,4.8,12.,4.8
1979-07-13 06:16:54.640 ,7,0,,0,1.,4.8,0.,4.8,,0,0.,4.8,8.,4.8
1979-07-13 06:16:59.440 ,7,0,,0,3.,4.8,0.,4.8,,0,0.,4.8,0.,4.8
1979-07-13 06:17:04.240 ,7,0,,0,10.,4.8,0.,4.8,,0,0.,4.8,0.,4.8
1979-07-13 06:17:09.040 ,7,0,,0,8.,4.8,0.,4.8,,0,0.,4.8,0.,4.8
1979-07-13 06:17:13.840 ,7,0,,0,3.,4.8,0.,4.8,,0,0.,4.8,0.,4.8
1979-07-13 06:17:18.640 ,7,0,,0,7.,4.8,0.,4.8,,0,0.,4.8,0.,4.8
1979-07-13 06:17:23.440 ,7,0,,0,7.,4.8,0.,4.8,,0,0.,4.8,0.,4.8
1979-07-13 06:17:28.240 ,7,0,,0,0.,4.8,0.,4.8,,0,0.,4.8,0.,4.8
1979-07-13 06:17:33.040 ,7,0,,0,1.,4.8,0.,4.8,,0,0.,4.8,0.,4.8
1979-07-13 06:17:37.840 ,7,0,,0,0.,4.8,0.,4.8,,0,0.,4.8,0.,4.8
1979-07-13 06:17:42.640 ,7,0,,0,2.,4.8,0.,4.8,,0,0.,4.8,0.,4.8
1979-07-13 06:17:47.440 ,7,0,,0,1.,4.8,0.,4.8,,0,0.,4.8,0.,4.8
1979-07-13 06:17:52.240 ,7,0,,0,8.,4.8,0.,4.8,,0,0.,4.8,0.,4.8
1979-07-13 06:17:57.040 ,7,0,,0,8.,4.8,0.,4.8,,0,0.,4.8,0.,4.8
1979-07-13 06:18:01.840 ,7,0,,0,7.,4.8,0.,4.8,,0,0.,4.8,0.,4.8
1979-07-13 06:18:06.640 ,7,0,,0,3.,4.8,0.,4.8,,0,0.,4.8,0.,4.8
1979-07-13 06:18:11.440 ,7,0,,0,8.,4.8,0.,4.8,,0,0.,4.8,0.,4.8
1979-07-13 06:18:16.240 ,7,0,,0,0.,4.8,0.,4.8,,0,0.,4.8,0.,4.8
1979-07-13 06:18:21.040 ,7,0,,0,0.,4.8,0.,4.8,,0,0.,4.8,0.,4.8
1979-07-13 06:18:25.840 ,6,0,,0,0.,4.8,0.,4.8,,0,0.,4.8,0.,4.8
1979-07-13 06:18:30.640 ,6,0,,0,0.,4.8,0.,4.8,,0,0.,4.8,4.,4.8
1979-07-13 06:18:35.440 ,6,0,,0,7.,4.8,1.,4.8,,0,0.,4.8,12.,4.8
1979-07-13 06:18:40.240 ,6,0,,0,27.,4.8,2.,4.8,,0,0.,4.8,14.,4.8
1979-07-13 06:18:45.040 ,6,0,,0,31.,4.8,1.,4.8,,0,0.,4.8,21.,4.8
1979-07-13 06:18:49.840 ,6,0,,0,30.,4.8,3.,4.8,,0,0.,4.8,19.,4.8
1979-07-13 06:18:54.640 ,6,0,,0,36.,4.8,2.,4.8,,0,0.,4.8,12.,4.8
1979-07-13 06:18:59.440 ,6,0,,0,27.,4.8,2.,4.8,,0,0.,4.8,12.,4.8
1979-07-13 06:19:04.240 ,6,0,,0,0.,4.8,0.,4.8,,0,0.,4.8,13.,4.8
1979-07-13 06:19:09.040 ,6,0,,0,0.,4.8,0.,4.8,,0,0.,4.8,17.,4.8
1979-07-13 06:19:13.840 ,5,0,,0,0.,4.8,0.,4.8,,0,0.,4.8,17.,4.8
1979-07-13 06:19:18.640 ,5,0,,0,1.,4.8,0.,4.8,,0,0.,4.8,28.,4.8
1979-07-13 06:19:23.440 ,5,0,,0,7.,4.8,2.,4.8,,0,0.,4.8,38.,4.8
1979-07-13 06:19:28.240 ,5,0,,0,61.,4.8,7.,4.8,,0,0.,4.8,37.,4.8
1979-07-13 06:19:33.040 ,5,0,,0,74.,4.8,7.,4.8,,0,0.,4.8,39.,4.8
1979-07-13 06:19:37.840 ,5,0,,0,100.,4.8,10.,4.8,,0,0.,4.8,41.,4.8
1979-07-13 06:19:42.640 ,5,0,,0,88.,4.8,9.,4.8,,0,0.,4.8,42.,4.8
1979-07-13 06:19:47.440 ,5,0,,0,72.,4.8,6.,4.8,,0,0.,4.8,43.,4.8
1979-07-13 06:19:52.240 ,5,0,,0,0.,4.8,0.,4.8,,0,0.,4.8,41.,4.8
1979-07-13 06:19:57.040 ,5,0,,0,0.,4.8,0.,4.8,,0,0.,4.8,30.,4.8
1979-07-13 06:20:01.840 ,4,0,,0,0.,4.8,0.,4.8,,0,0.,4.8,42.,4.8
1979-07-13 06:20:06.640 ,4,0,,0,1.,4.8,0.,4.8,,0,0.,4.8,35.,4.8
1979-07-13 06:20:11.440 ,4,0,,0,19.,4.8,4.,4.8,,0,0.,4.8,37.,4.8
1979-07-13 06:20:16.240 ,4,0,,0,112.,4.8,17.,4.8,,0,0.,4.8,44.,4.8
1979-07-13 06:20:21.040 ,4,0,,0,94.,4.8,15.,4.8,,0,0.,4.8,45.,4.8
1979-07-13 06:20:25.840 ,4,0,,0,92.,4.8,12.,4.8,,0,0.,4.8,30.,4.8
1979-07-13 06:20:30.640 ,4,0,,0,82.,4.8,6.,4.8,,0,0.,4.8,44.,4.8
1979-07-13 06:20:35.440 ,4,0,,0,76.,4.8,8.,4.8,,0,0.,4.8,44.,4.8
1979-07-13 06:20:40.240 ,4,0,,0,0.,4.8,0.,4.8,,0,0.,4.8,44.,4.8
1979-07-13 06:20:45.040 ,4,0,,0,0.,4.8,0.,4.8,,0,0.,4.8,46.,4.8
1979-07-13 06:20:49.840 ,3,0,,0,0.,4.8,0.,4.8,,0,0.,4.8,42.,4.8
1979-07-13 06:20:54.640 ,3,0,,0,0.,4.8,0.,4.8,,0,0.,4.8,38.,4.8
1979-07-13 06:20:59.440 ,3,0,,0,13.,4.8,2.,4.8,,0,0.,4.8,32.,4.8
1979-07-13 06:21:04.240 ,3,0,,0,66.,4.8,7.,4.8,,0,0.,4.8,45.,4.8
1979-07-13 06:21:09.040 ,3,0,,0,66.,4.8,7.,4.8,,0,0.,4.8,42.,4.8
1979-07-13 06:21:13.840 ,3,0,,0,92.,4.8,10.,4.8,,0,0.,4.8,26.,4.8
1979-07-13 06:21:18.640 ,3,0,,0,88.,4.8,12.,4.8,,0,0.,4.8,50.,4.8
1979-07-13 06:21:23.440 ,3,0,,0,74.,4.8,6.,4.8,,0,0.,4.8,35.,4.8
1979-07-13 06:21:28.240 ,3,0,,0,0.,4.8,0.,4.8,,0,0.,4.8,39.,4.8
1979-07-13 06:21:33.040 ,3,0,,0,0.,4.8,0.,4.8,,0,0.,4.8,39.,4.8
1979-07-13 06:21:37.840 ,2,0,,0,0.,4.8,0.,4.8,,0,0.,4.8,42.,4.8
1979-07-13 06:21:42.640 ,2,0,,0,0.,4.8,0.,4.8,,0,0.,4.8,38.,4.8
1979-07-13 06:21:47.440 ,2,0,,0,11.,4.8,1.,4.8,,0,0.,4.8,12.,4.8
1979-07-13 06:21:52.240 ,2,0,,0,39.,4.8,2.,4.8,,0,0.,4.8,18.,4.8
1979-07-13 06:21:57.040 ,2,0,,0,53.,4.8,4.,4.8,,0,0.,4.8,22.,4.8
1979-07-13 06:22:01.840 ,2,0,,0,47.,4.8,3.,4.8,,0,0.,4.8,22.,4.8
1979-07-13 06:22:06.640 ,2,0,,0,47.,4.8,9.,4.8,,0,0.,4.8,18.,4.8
1979-07-13 06:22:11.440 ,2,0,,0,32.,4.8,6.,4.8,,0,0.,4.8,12.,4.8
1979-07-13 06:22:16.240 ,2,0,,0,1.,4.8,0.,4.8,,0,0.,4.8,15.,4.8
1979-07-13 06:22:21.040 ,2,0,,0,0.,4.8,0.,4.8,,0,0.,4.8,15.,4.8
1979-07-13 06:22:25.840 ,1,0,,0,0.,4.8,0.,4.8,,0,0.,4.8,15.,4.8
1979-07-13 06:22:30.640 ,1,0,,0,0.,4.8,0.,4.8,,0,0.,4.8,13.,4.8
1979-07-13 06:22:35.440 ,1,0,,0,8.,4.8,1.,4.8,,0,0.,4.8,10.,4.8
1979-07-13 06:22:40.240 ,1,0,,0,24.,4.8,0.,4.8,,0,0.,4.8,11.,4.8
1979-07-13 06:22:45.040 ,1,0,,0,29.,4.8,1.,4.8,,0,0.,4.8,8.,4.8
1979-07-13 06:22:49.840 ,1,0,,0,20.,4.8,3.,4.8,,0,0.,4.8,7.,4.8
1979-07-13 06:22:54.640 ,1,0,,0,25.,4.8,3.,4.8,,0,0.,4.8,10.,4.8
1979-07-13 06:22:59.440 ,1,0,,0,18.,4.8,5.,4.8,,0,0.,4.8,15.,4.8
1979-07-13 06:23:04.240 ,1,0,,0,0.,4.8,0.,4.8,,0,0.,4.8,7.,4.8
1979-07-13 06:23:09.040 ,1,0,,0,0.,4.8,0.,4.8,,0,0.,4.8,14.,4.8
1979-07-13 06:23:13.840 ,0,0,,0,1.,4.8,0.,4.8,,0,0.,4.8,9.,4.8
1979-07-13 06:23:18.640 ,0,0,,0,0.,4.8,0.,4.8,,0,0.,4.8,9.,4.8
1979-07-13 06:23:23.440 ,0,0,,0,4.,4.8,1.,4.8,,0,0.,4.8,13.,4.8
1979-07-13 06:23:28.240 ,0,0,,0,15.,4.8,3.,4.8,,0,0.,4.8,5.,4.8
1979-07-13 06:23:33.040 ,0,0,,0,13.,4.8,1.,4.8,,0,0.,4.8,4.,4.8
1979-07-13 06:23:37.840 ,0,0,,0,12.,4.8,0.,4.8,,0,0.,4.8,3.,4.8
1979-07-13 06:23:42.640 ,0,0,,0,17.,4.8,2.,4.8,,0,0.,4.8,4.,4.8
1979-07-13 06:23:47.440 ,0,0,,0,12.,4.8,1.,4.8,,0,0.,4.8,3.,4.8
1979-07-13 06:23:52.240 ,0,0,,0,0.,4.8,0.,4.8,,0,0.,4.8,2.,4.8
1979-07-13 06:23:57.040 ,0,0,,0,2.,4.8,0.,4.8,,0,0.,4.8,7.,4.8
1979-07-13 06:24:01.840 ,0,0,,0,0.,4.8,0.,4.8,,0,0.,4.8,7.,4.8
1979-07-13 06:24:06.640 ,0,0,,0,0.,4.8,0.,4.8,,0,0.,4.8,6.,4.8
1979-07-13 06:24:11.440 ,0,0,,0,1.,4.8,0.,4.8,,0,0.,4.8,2.,4.8
1979-07-13 06:24:16.240 ,0,0,,0,14.,4.8,2.,4.8,,0,0.,4.8,5.,4.8
1979-07-13 06:24:21.040 ,0,0,,0,18.,4.8,2.,4.8,,0,0.,4.8,1.,4.8
1979-07-13 06:24:25.840 ,0,0,,0,15.,4.8,2.,4.8,,0,0.,4.8,2.,4.8
1979-07-13 06:24:30.640 ,0,0,,0,11.,4.8,0.,4.8,,0,0.,4.8,4.,4.8
1979-07-13 06:24:35.440 ,0,0,,0,16.,4.8,1.,4.8,,0,0.,4.8,2.,4.8
1979-07-13 06:24:40.240 ,0,0,,0,0.,4.8,0.,4.8,,0,0.,4.8,5.,4.8
1979-07-13 06:24:45.040 ,0,0,,0,0.,4.8,0.,4.8,,0,0.,4.8,7.,4.8
1979-07-13 06:24:49.840 ,1,0,,0,0.,4.8,0.,4.8,,0,0.,4.8,11.,4.8
1979-07-13 06:24:54.640 ,1,0,,0,0.,4.8,0.,4.8,,0,0.,4.8,6.,4.8
1979-07-13 06:24:59.440 ,1,0,,0,2.,4.8,0.,4.8,,0,0.,4.8,5.,4.8
1979-07-13 06:25:04.240 ,1,0,,0,19.,4.8,1.,4.8,,0,0.,4.8,12.,4.8
1979-07-13 06:25:09.040 ,1,0,,0,21.,4.8,1.,4.8,,0,0.,4.8,8.,4.8
1979-07-13 06:25:13.840 ,1,0,,0,14.,4.8,3.,4.8,,0,0.,4.8,6.,4.8
1979-07-13 06:25:18.640 ,1,0,,0,14.,4.8,1.,4.8,,0,0.,4.8,6.,4.8
1979-07-13 06:25:23.440 ,1,0,,0,14.,4.8,1.,4.8,,0,0.,4.8,6.,4.8
1979-07-13 06:25:28.240 ,1,0,,0,0.,4.8,0.,4.8,,0,0.,4.8,8.,4.8
1979-07-13 06:25:33.040 ,1,0,,0,0.,4.8,0.,4.8,,0,0.,4.8,7.,4.8
1979-07-13 06:25:37.840 ,2,0,,0,0.,4.8,0.,4.8,,0,0.,4.8,4.,4.8
1979-07-13 06:25:42.640 ,2,0,,0,0.,4.8,0.,4.8,,0,0.,4.8,9.,4.8
1979-07-13 06:25:47.440 ,2,0,,0,4.,4.8,0.,4.8,,0,0.,4.8,14.,4.8
1979-07-13 06:25:52.240 ,2,0,,0,38.,4.8,2.,4.8,,0,0.,4.8,10.,4.8
1979-07-13 06:25:57.040 ,2,0,,0,28.,4.8,0.,4.8,,0,0.,4.8,13.,4.8
1979-07-13 06:26:01.840 ,2,0,,0,29.,4.8,2.,4.8,,0,0.,4.8,10.,4.8
1979-07-13 06:26:06.640 ,2,0,,0,29.,4.8,5.,4.8,,0,0.,4.8,18.,4.8
1979-07-13 06:26:11.440 ,2,0,,0,21.,4.8,0.,4.8,,0,0.,4.8,8.,4.8
1979-07-13 06:26:16.240 ,2,0,,0,0.,4.8,0.,4.8,,0,0.,4.8,6.,4.8
1979-07-13 06:26:21.040 ,2,0,,0,0.,4.8,0.,4.8,,0,0.,4.8,15.,4.8
1979-07-13 06:26:25.840 ,3,0,,0,0.,4.8,0.,4.8,,0,0.,4.8,15.,4.8
1979-07-13 06:26:30.640 ,3,0,,0,1.,4.8,0.,4.8,,0,0.,4.8,15.,4.8
1979-07-13 06:26:35.440 ,3,0,,0,4.,4.8,0.,4.8,,0,0.,4.8,7.,4.8
1979-07-13 06:26:40.240 ,3,0,,0,24.,4.8,3.,4.8,,0,0.,4.8,11.,4.8
1979-07-13 06:26:45.040 ,3,0,,0,22.,4.8,2.,4.8,,0,0.,4.8,14.,4.8
1979-07-13 06:26:49.840 ,3,0,,0,38.,4.8,6.,4.8,,0,0.,4.8,13.,4.8
1979-07-13 06:26:54.640 ,3,0,,0,38.,4.8,6.,4.8,,0,0.,4.8,12.,4.8
1979-07-13 06:26:59.440 ,3,0,,0,28.,4.8,2.,4.8,,0,0.,4.8,6.,4.8
1979-07-13 06:27:04.240 ,3,0,,0,1.,4.8,0.,4.8,,0,0.,4.8,16.,4.8
1979-07-13 06:27:09.040 ,3,0,,0,0.,4.8,0.,4.8,,0,0.,4.8,16.,4.8
1979-07-13 06:27:13.840 ,4,0,,0,0.,4.8,0.,4.8,,0,0.,4.8,11.,4.8
1979-07-13 06:27:18.640 ,4,0,,0,0.,4.8,0.,4.8,,0,0.,4.8,8.,4.8
1979-07-13 06:27:23.440 ,4,0,,0,5.,4.8,1.,4.8,,0,0.,4.8,11.,4.8
1979-07-13 06:27:28.240 ,4,0,,0,27.,4.8,3.,4.8,,0,0.,4.8,12.,4.8
1979-07-13 06:27:33.040 ,4,0,,0,30.,4.8,2.,4.8,,0,0.,4.8,13.,4.8
1979-07-13 06:27:37.840 ,4,0,,0,31.,4.8,8.,4.8,,0,0.,4.8,12.,4.8
1979-07-13 06:27:42.640 ,4,0,,0,31.,4.8,5.,4.8,,0,0.,4.8,10.,4.8
1979-07-13 06:27:47.440 ,4,0,,0,37.,4.8,4.,4.8,,0,0.,4.8,10.,4.8
1979-07-13 06:27:52.240 ,4,0,,0,0.,4.8,0.,4.8,,0,0.,4.8,11.,4.8
1979-07-13 06:27:57.040 ,4,0,,0,0.,4.8,0.,4.8,,0,0.,4.8,9.,4.8
1979-07-13 06:28:01.840 ,5,0,,0,0.,4.8,0.,4.8,,0,0.,4.8,8.,4.8
1979-07-13 06:28:06.640 ,5,0,,0,0.,4.8,0.,4.8,,0,0.,4.8,10.,4.8
1979-07-13 06:28:11.440 ,5,0,,0,6.,4.8,0.,4.8,,0,0.,4.8,8.,4.8
1979-07-13 06:28:16.240 ,5,0,,0,23.,4.8,2.,4.8,,0,0.,4.8,14.,4.8
1979-07-13 06:28:21.040 ,5,0,,0,33.,4.8,4.,4.8,,0,0.,4.8,11.,4.8
1979-07-13 06:28:25.840 ,5,0,,0,24.,4.8,3.,4.8,,0,0.,4.8,10.,4.8
1979-07-13 06:28:30.640 ,5,0,,0,30.,4.8,2.,4.8,,0,0.,4.8,6.,4.8
1979-07-13 06:28:35.440 ,5,0,,0,13.,4.8,2.,4.8,,0,0.,4.8,14.,4.8
1979-07-13 06:28:40.240 ,5,0,,0,0.,4.8,0.,4.8,,0,0.,4.8,14.,4.8
1979-07-13 06:28:45.040 ,5,0,,0,1.,4.8,0.,4.8,,0,0.,4.8,13.,4.8
1979-07-13 06:28:49.840 ,6,0,,0,1.,4.8,0.,4.8,,0,0.,4.8,11.,4.8
1979-07-13 06:28:54.640 ,6,0,,0,0.,4.8,0.,4.8,,0,0.,4.8,7.,4.8
1979-07-13 06:28:59.440 ,6,0,,0,5.,4.8,0.,4.8,,0,0.,4.8,7.,4.8
1979-07-13 06:29:04.240 ,6,0,,0,27.,4.8,3.,4.8,,0,0.,4.8,9.,4.8
1979-07-13 06:29:09.040 ,6,0,,0,21.,4.8,1.,4.8,,0,0.,4.8,8.,4.8
1979-07-13 06:29:13.840 ,6,0,,0,20.,4.8,1.,4.8,,0,0.,4.8,6.,4.8
1979-07-13 06:29:18.640 ,6,0,,0,18.,4.8,2.,4.8,,0,0.,4.8,9.,4.8
1979-07-13 06:29:23.440 ,6,0,,0,12.,4.8,1.,4.8,,0,0.,4.8,9.,4.8
1979-07-13 06:29:28.240 ,6,0,,0,0.,4.8,0.,4.8,,0,0.,4.8,9.,4.8
1979-07-13 06:29:33.040 ,6,0,,0,0.,4.8,0.,4.8,,0,0.,4.8,11.,4.8
1979-07-13 06:29:37.840 ,7,0,,0,1.,4.8,0.,4.8,,0,0.,4.8,9.,4.8